Location: Poughquag
(41.6090°N, 73.6820°W)
Time: 03:38:11
(UTC-04:00)

Vanguard 1 - Pass Details

Date: 01 June 2020
Orbit: 650 x 3833 km, 34.2° (Epoch: 06 July)

Event Time Altitude Azimuth Distance (km) Brightness Sun altitude
Rises 08:27:47 0° 261° (W) 6,632 13.8 32.0°
Reaches altitude 10° 08:31:37 10° 259° (W) 5,936 13.6 32.7°
Maximum altitude 08:52:08 71° 181° (S) 3,943 13.7 36.5°
Drops below altitude 10° 09:14:39 10° 104° (ESE) 6,421 15.4 40.7°
Sets 09:19:01 0° 102° (ESE) 7,169 15.3 41.5°
